Weather History for Pompano Beach, FL

Change the Weather History Date:

Sunday, November 28, 2010

  Actual Average Record
Temperature  
Mean Temperature 75 °F -  
Max Temperature 81 °F 82 °F 89 °F (1948)
Min Temperature 69 °F 67 °F 37 °F (1956)
Cooling Degree Days 10    
Growing Degree Days 25 (Base 50)    
Moisture  
Dew Point 69 °F    
Average Humidity 82    
Maximum Humidity 93    
Minimum Humidity 66    
Precipitation  
Precipitation 0.04 in - - ()
Sea Level Pressure  
Sea Level Pressure 30.06 in    
Wind  
Wind Speed 7 mph (ENE)    
Max Wind Speed 13 mph    
Max Gust Speed -    
Visibility 10 miles    
Events Rain    
Averages and records for this station are not official NWS values.
T = Trace of Precipitation, MM = Missing Value Source: NWS Daily Summary

Daily Weather History Graph

Daily Weather History Graph

Search for Another Location

Airport:

Trip Planner

Search our weather history database for the weather conditions in past years. The results will help you decide how hot, cold, wet, or windy it might be!

Date:

Astronomy

Nov. 28, 2010 Rise Set
Actual Time 6:48 AM EST 5:28 PM EST
Civil Twilight 6:23 AM EST 5:52 PM EST
Nautical Twilight 5:55 AM EST 6:21 PM EST
Astronomical Twilight 5:27 AM EST 6:49 PM EST
Moon No Moon Rise 12:19 PM EST (11/28)
Length of Visible Light 11h 29m
Length of Day
10h 39m
Waning Gibbous, 52% of the Moon is Illuminated
Nov 28
Waning Gibbous
Nov 28
Last Quarter
Dec 5
New
Dec 13
First Quarter
Dec 21
Full

Hourly Weather History & Observations

Time (EST) Temp. Heat Index Dew Point Humidity Pressure Visibility Wind Dir Wind Speed Gust Speed Precip Events Conditions
12:53 AM 73.0 °F - 69.1 °F 87% 30.02 in 10.0 mi North 3.5 mph - N/A   Mostly Cloudy
1:53 AM 73.0 °F - 69.1 °F 87% 30.01 in 10.0 mi North 3.5 mph - N/A   Overcast
2:53 AM 72.0 °F - 69.1 °F 91% 30.01 in 10.0 mi NNW 4.6 mph - N/A   Mostly Cloudy
3:53 AM 71.1 °F - 69.1 °F 93% 30.01 in 10.0 mi NNW 6.9 mph - N/A   Mostly Cloudy
4:53 AM 71.1 °F - 68.0 °F 90% 30.02 in 10.0 mi NNW 5.8 mph - N/A   Mostly Cloudy
5:53 AM 70.0 °F - 68.0 °F 93% 30.04 in 10.0 mi Calm Calm - N/A   Mostly Cloudy
6:53 AM 69.1 °F - 66.9 °F 93% 30.05 in 10.0 mi North 4.6 mph - N/A   Mostly Cloudy
7:53 AM 71.1 °F - 68.0 °F 90% 30.07 in 10.0 mi Calm Calm - N/A   Mostly Cloudy
8:53 AM 73.0 °F - 69.1 °F 87% 30.09 in 10.0 mi NNE 6.9 mph - 0.00 in   Scattered Clouds
9:53 AM 79.0 °F - 66.9 °F 66% 30.10 in 10.0 mi NE 10.4 mph - 0.00 in   Scattered Clouds
10:53 AM 80.1 °F 82.9 °F 69.1 °F 69% 30.09 in 10.0 mi ENE 10.4 mph - N/A   Scattered Clouds
11:53 AM 79.0 °F - 70.0 °F 74% 30.08 in 10.0 mi ENE 9.2 mph - N/A   Scattered Clouds
12:53 PM 81.0 °F 84.4 °F 70.0 °F 69% 30.06 in 10.0 mi ENE 8.1 mph - 0.00 in Rain Light Rain
1:53 PM 80.1 °F 82.7 °F 68.0 °F 67% 30.04 in 10.0 mi East 8.1 mph - 0.00 in   Scattered Clouds
2:53 PM 79.0 °F - 70.0 °F 74% 30.03 in 10.0 mi East 8.1 mph - N/A   Scattered Clouds
3:53 PM 77.0 °F - 71.1 °F 82% 30.04 in 10.0 mi ENE 6.9 mph - 0.00 in Rain Light Rain
4:31 PM 75.2 °F - 71.6 °F 89% 30.04 in 10.0 mi ENE 12.7 mph - 0.04 in Rain Light Rain
4:53 PM 75.0 °F - 71.1 °F 87% 30.05 in 10.0 mi ENE 11.5 mph - 0.04 in   Overcast
5:23 PM 75.2 °F - 71.6 °F 89% 30.06 in 10.0 mi East 10.4 mph - 0.00 in   Mostly Cloudy
5:53 PM 75.0 °F - 70.0 °F 84% 30.07 in 10.0 mi East 10.4 mph - 0.00 in   Overcast
6:15 PM 75.2 °F - 69.8 °F 83% 30.07 in 10.0 mi East 11.5 mph - N/A   Overcast
6:32 PM 75.2 °F - 69.8 °F 83% 30.07 in 10.0 mi East 12.7 mph - N/A   Overcast
6:41 PM 75.2 °F - 69.8 °F 83% 30.07 in 10.0 mi East 11.5 mph - N/A   Overcast
6:53 PM 75.0 °F - 69.1 °F 82% 30.07 in 10.0 mi East 9.2 mph - N/A   Mostly Cloudy
7:53 PM 75.0 °F - 69.1 °F 82% 30.08 in 10.0 mi East 9.2 mph - N/A   Partly Cloudy
8:53 PM 77.0 °F - 68.0 °F 74% 30.09 in 10.0 mi ESE 10.4 mph - N/A   Overcast
9:53 PM 77.0 °F - 70.0 °F 79% 30.10 in 10.0 mi East 10.4 mph - N/A   Overcast
10:53 PM 75.9 °F - 70.0 °F 82% 30.09 in 10.0 mi ESE 10.4 mph - N/A   Mostly Cloudy
11:53 PM 75.9 °F - 69.1 °F 79% 30.08 in 10.0 mi ESE 9.2 mph - N/A   Clear